EW8805 Carrion De Calatrava ES current weather conditions

sailwx.info

Wind from 238 at 3 knots gusting 5

Air temperature 18.3° C
Dewpoint 10.7° C

Last reported at 2018-May-26 09:05 UTC.
Time now 2018-May-26 09:58 UTC

Location: N 39°01' W 003°49'.
View on Google Maps.

See reports from other nearby stations

  
Tides and Currents Weather Stations Pressure Air Temp Water Temp Dewpoint Dewpoint Depression Visibility Wind Speed Wind Dir Waves Ship Positions
date/time (UTC)wind fromknots sea level pressurealtimeterstation pressurevisibilityair tempwater tempwave heightnotes
2018-May-26 09:05 238 3 gusting 5 18.3
2018-May-26 09:00 261 1 gusting 4 18.9
2018-May-26 08:55 246 18.9
2018-May-26 08:50 239 2 gusting 4 18.3
2018-May-26 08:45 264 18.3
2018-May-26 08:40 231 0 gusting 5 18.3
2018-May-26 08:30 256 0 gusting 4 18.3
2018-May-26 08:25 238 2 gusting 5 18.3
2018-May-26 08:20 240 2 gusting 5 18.3
2018-May-26 08:10 229 1 gusting 3 18.9
2018-May-26 08:00 207 0 gusting 3 18.9
2018-May-26 07:55 270 18.9
2018-May-26 07:50 108 18.9
2018-May-26 07:45 166 0 gusting 2 18.3
2018-May-26 07:40 146 0 gusting 2 17.8
2018-May-26 07:35 056 0 gusting 1 17.2
2018-May-26 07:30 250 16.7
2018-May-26 07:25 248 1 gusting 1 16.7
2018-May-26 07:20 235 17.2
2018-May-26 07:15 212 16.1
2018-May-26 07:05 274 16.1
2018-May-26 07:00 226 16.1
2018-May-26 06:55 277 16.1
2018-May-26 06:50 277 15.6
2018-May-26 06:45 280 0 gusting 2 15.6
2018-May-26 06:40 264 16.1
2018-May-26 06:35 241 15.6
2018-May-26 06:30 240 15.0
2018-May-26 06:25 240 14.4
2018-May-26 06:15 218 13.9
2018-May-26 06:10 218 13.3
2018-May-26 06:05 253 13.3
2018-May-26 05:55 250 13.3
2018-May-26 05:45 225 0 gusting 1 12.8
2018-May-26 05:40 164 12.2
2018-May-26 05:35 148 12.2
2018-May-26 05:30 291 12.2
2018-May-26 05:25 291 12.2
2018-May-26 05:20 291 11.7
2018-May-26 05:10 291 11.7
2018-May-26 05:05 291 12.2
2018-May-26 05:00 299 11.7
2018-May-26 04:55 300 11.7
2018-May-26 04:50 300 11.7
2018-May-26 04:40 300 11.7
2018-May-26 04:30 300 11.7
2018-May-26 04:25 300 11.7
2018-May-26 04:20 296 0 gusting 1 11.7
2018-May-26 04:15 321 1 gusting 1 11.7
2018-May-26 04:10 296 0 gusting 1 11.7
2018-May-26 04:00 301 11.7
2018-May-26 03:55 290 11.7
2018-May-26 03:50 290 11.7
2018-May-26 03:45 288 11.7
2018-May-26 03:40 263 11.7
2018-May-26 03:35 263 11.7
2018-May-26 03:25 263 11.7
2018-May-26 03:20 263 11.7
2018-May-26 03:15 267 0 gusting 0 11.7
2018-May-26 03:05 259 11.7
2018-May-26 03:00 256 0 gusting 3 12.2
2018-May-26 02:55 278 1 gusting 3 12.2
2018-May-26 02:50 236 12.8
2018-May-26 02:45 193 12.8
2018-May-26 02:35 214 0 gusting 1 12.8
2018-May-26 02:30 166 12.8
2018-May-26 02:25 226 12.8
2018-May-26 02:20 217 0 gusting 1 12.8
2018-May-26 02:15 156 12.8
2018-May-26 02:10 208 12.8
2018-May-26 02:00 203 12.8
2018-May-26 01:55 208 12.8
2018-May-26 01:50 215 12.8
2018-May-26 01:45 208 0 gusting 2 12.8
2018-May-26 01:35 207 0 gusting 2 12.8
2018-May-26 01:25 191 0 gusting 1 12.8
2018-May-26 01:20 160 12.8
2018-May-26 01:15 221 0 gusting 2 12.2
2018-May-26 01:10 148 0 gusting 2 12.2
2018-May-26 01:00 159 12.8
2018-May-26 00:55 170 12.8
2018-May-26 00:50 188 12.8
2018-May-26 00:40 126 12.8
2018-May-26 00:35 166 12.8
2018-May-26 00:30 111 1 gusting 2 12.8
2018-May-26 00:20 166 12.8
2018-May-26 00:15 166 12.8
2018-May-26 00:10 094 3 gusting 3 13.3
2018-May-26 00:00 248 1 gusting 3 13.3
2018-May-25 23:55 249 2 gusting 3 13.3
2018-May-25 23:50 243 2 gusting 3 13.3
2018-May-25 23:45 233 13.3
2018-May-25 23:35 188 0 gusting 1 13.3
2018-May-25 23:30 101 13.3
2018-May-25 23:25 110 13.3
2018-May-25 23:15 233 0 gusting 1 13.3
2018-May-25 23:10 270 13.3
2018-May-25 23:00 058 13.3
2018-May-25 22:55 058 13.3
2018-May-25 22:50 280 13.3
2018-May-25 22:40 284 1 gusting 3 13.3
2018-May-25 22:35 285 1 gusting 2 13.3
2018-May-25 22:30 284 0 gusting 1 13.3
2018-May-25 22:20 276 0 gusting 2 13.3
2018-May-25 22:15 270 1 gusting 2 13.3
2018-May-25 22:10 269 1 gusting 2 13.3
2018-May-25 22:00 257 2 gusting 5 13.3
2018-May-25 21:55 262 3 gusting 5 13.3
2018-May-25 21:50 276 3 gusting 6 13.9
2018-May-25 21:40 243 4 gusting 7 13.9
2018-May-25 21:35 259 6 gusting 7 13.9
2018-May-25 21:25 261 4 gusting 5 14.4
2018-May-25 21:20 263 3 gusting 5 14.4
2018-May-25 21:15 273 4 gusting 5 14.4
2018-May-25 21:10 280 2 gusting 3 14.4
2018-May-25 21:05 266 2 gusting 3 14.4
2018-May-25 21:00 270 1 gusting 3 14.4
2018-May-25 20:55 285 2 gusting 4 14.4
2018-May-25 20:50 272 3 gusting 5 14.4
2018-May-25 20:45 277 4 gusting 6 14.4
2018-May-25 20:40 285 4 gusting 6 13.9
2018-May-25 20:30 285 4 gusting 6 14.4
2018-May-25 20:25 305 4 gusting 5 14.4
2018-May-25 20:20 306 0 gusting 4 14.4
2018-May-25 20:15 283 2 gusting 4 14.4
2018-May-25 20:10 281 1 gusting 4 14.4
2018-May-25 20:05 285 3 gusting 4 15.0
2018-May-25 20:00 284 1 gusting 3 15.0
2018-May-25 19:55 291 1 gusting 3 15.6
2018-May-25 19:50 280 1 gusting 3 15.6
2018-May-25 19:45 284 1 gusting 3 15.6
2018-May-25 19:35 284 2 gusting 4 16.1
2018-May-25 19:30 294 2 gusting 4 16.1
2018-May-25 19:25 284 3 gusting 4 16.1
2018-May-25 19:20 278 1 gusting 2 16.1
2018-May-25 19:10 281 2 gusting 4 16.7
2018-May-25 19:05 259 2 gusting 4 16.7
2018-May-25 19:00 280 2 gusting 5 16.7
2018-May-25 18:55 285 2 gusting 6 16.7
2018-May-25 18:45 260 5 gusting 9 16.7
2018-May-25 18:40 269 5 gusting 9 17.2
2018-May-25 18:35 259 6 gusting 9 17.2
2018-May-25 18:30 260 6 gusting 9 17.2
2018-May-25 18:25 266 6 gusting 13 17.8
2018-May-25 18:20 266 8 gusting 13 17.8
2018-May-25 18:15 270 10 gusting 13 17.8
2018-May-25 18:10 259 9 gusting 13 18.3
2018-May-25 18:00 233 9 gusting 13 18.3
2018-May-25 17:55 264 8 gusting 13 18.3
2018-May-25 17:50 281 9 gusting 14 18.3
2018-May-25 17:40 257 11 gusting 16 18.9
2018-May-25 17:35 218 10 gusting 16 19.4
2018-May-25 17:25 212 6 gusting 11 20.6
2018-May-25 17:20 218 6 gusting 11 20.6
2018-May-25 17:15 228 8 gusting 13 20.6
2018-May-25 17:10 191 5 gusting 13 21.1
2018-May-25 17:05 253 7 gusting 10 21.1
2018-May-25 17:00 255 2 gusting 6 21.1
2018-May-25 16:55 236 3 gusting 9 20.6
2018-May-25 16:50 206 4 gusting 9 20.6
2018-May-25 16:40 203 2 gusting 8 20.6
2018-May-25 16:25 211 5 gusting 7 20.0
2018-May-25 16:20 225 4 gusting 8 20.0
2018-May-25 16:10 201 8 gusting 11 20.6
2018-May-25 16:05 218 6 gusting 10 20.6
2018-May-25 16:00 243 5 gusting 11 20.6
2018-May-25 15:55 236 7 gusting 12 20.6
2018-May-25 15:45 141 6 gusting 11 20.0
2018-May-25 15:40 240 6 gusting 9 20.0
2018-May-25 15:30 222 7 gusting 11 19.4
2018-May-25 15:25 232 6 gusting 10 19.4
2018-May-25 15:20 231 7 gusting 10 19.4
2018-May-25 15:10 263 6 gusting 13 18.9
2018-May-25 15:05 200 8 gusting 13 19.4
2018-May-25 14:55 256 10 gusting 13 19.4
2018-May-25 14:50 246 7 gusting 9 20.0
2018-May-25 14:45 250 6 gusting 9 20.0
2018-May-25 14:40 269 6 gusting 9 20.0
2018-May-25 14:35 231 5 gusting 8 20.6
2018-May-25 14:25 246 2 gusting 9 20.6
2018-May-25 14:20 224 6 gusting 9 21.1
2018-May-25 14:15 231 6 gusting 10 21.1
2018-May-25 14:10 203 2 gusting 6 21.1
2018-May-25 14:05 099 3 gusting 6 20.6
2018-May-25 14:00 221 2 gusting 5 20.0
2018-May-25 13:55 143 0 gusting 4 20.0
2018-May-25 13:50 257 1 gusting 3 20.0
2018-May-25 13:45 260 19.4
2018-May-25 13:35 236 2 gusting 4 18.9
2018-May-25 13:30 252 2 gusting 5 18.9
2018-May-25 13:25 248 3 gusting 5 18.9
2018-May-25 13:20 266 1 gusting 3 18.9
2018-May-25 13:10 226 2 gusting 5 18.3
2018-May-25 13:05 292 3 gusting 5 18.3
2018-May-25 13:00 264 3 gusting 5 18.3
2018-May-25 12:55 280 2 gusting 5 18.3
2018-May-25 12:50 253 3 gusting 5 18.9
2018-May-25 12:45 252 0 gusting 5 19.4
2018-May-25 12:40 210 1 gusting 6 19.4
2018-May-25 12:30 240 1 gusting 3 19.4
2018-May-25 12:25 226 1 gusting 4 18.9
2018-May-25 12:20 061 18.3
2018-May-25 12:10 270 2 gusting 4 17.8
2018-May-25 12:05 224 17.2
2018-May-25 12:00 236 1 gusting 4 17.2
2018-May-25 11:55 228 3 gusting 5 17.2
2018-May-25 11:50 264 3 gusting 5 17.2
2018-May-25 11:45 256 2 gusting 5 17.8
2018-May-25 11:40 263 2 gusting 4 18.3
2018-May-25 11:35 197 0 gusting 3 18.3
2018-May-25 11:30 110 1 gusting 5 18.3
2018-May-25 11:25 105 1 gusting 5 18.3
2018-May-25 11:20 160 17.8
2018-May-25 11:15 322 16.7
2018-May-25 11:10 085 1 gusting 3 17.2
2018-May-25 11:05 189 1 gusting 4 17.2
2018-May-25 11:00 337 0 gusting 4 17.2
2018-May-25 10:55 049 0 gusting 2 17.2
2018-May-25 10:50 250 0 gusting 2 17.2
2018-May-25 10:40 075 0 gusting 2 16.7
2018-May-25 10:35 295 0 gusting 2 16.1
2018-May-25 10:30 330 15.6
2018-May-25 10:25 257 1 gusting 2 15.0
2018-May-25 10:15 040 0 gusting 1 14.4
2018-May-25 10:10 345 14.4
2018-May-25 10:05 344 14.4
2018-May-25 10:00 345 14.4
2018-May-25 09:55 041 14.4
2018-May-25 09:50 350 0 gusting 2 14.4
2018-May-25 09:45 081 0 gusting 2 14.4
2018-May-25 09:40 026 0 gusting 2 13.9
2018-May-25 09:35 062 0 gusting 1 13.9
2018-May-25 09:30 056 13.9
2018-May-25 09:20 039 13.9
2018-May-25 09:10 068 13.9
2018-May-25 09:05 037 13.9
2018-May-25 08:55 056 13.9
2018-May-25 08:50 058 13.9
2018-May-25 08:45 054 13.3
2018-May-25 08:40 054 13.3
2018-May-25 08:35 053 13.3
2018-May-25 08:30 062 12.8
2018-May-25 08:25 308 12.8
2018-May-25 08:20 308 13.3
2018-May-25 08:10 348 13.3
2018-May-25 08:00 065 0 gusting 1 12.8
2018-May-25 07:55 001 13.3
2018-May-25 07:50 004 12.8
2018-May-25 07:45 246 12.8
2018-May-25 07:40 240 12.8
2018-May-25 07:35 264 12.8
2018-May-25 07:30 262 12.8
2018-May-25 07:20 257 0 gusting 1 12.8
2018-May-25 07:15 263 12.8
2018-May-25 07:05 072 12.8
2018-May-25 06:55 008 12.8
2018-May-25 06:50 130 12.8
2018-May-25 06:45 101 0 gusting 1 12.8
2018-May-25 06:40 087 0 gusting 1 12.8
2018-May-25 06:30 295 12.8
2018-May-25 06:25 295 12.8
2018-May-25 06:20 297 12.8
2018-May-25 06:15 243 0 gusting 1 12.8
2018-May-25 06:10 267 0 gusting 3 12.8
2018-May-25 06:00 256 2 gusting 3 12.8
2018-May-25 05:55 266 1 gusting 2 12.8
2018-May-25 05:50 259 12.8
2018-May-25 05:40 030 12.8
2018-May-25 05:35 058 12.8
2018-May-25 05:30 034 12.8
2018-May-25 05:25 056 1 gusting 3 12.8
2018-May-25 05:15 062 12.8
2018-May-25 05:10 081 2 gusting 4 12.8
2018-May-25 05:05 070 3 gusting 5 12.8
2018-May-25 05:00 048 0 gusting 1 12.8
2018-May-25 04:55 016 12.8
2018-May-25 04:45 294 12.8
2018-May-25 04:35 284 12.8
2018-May-25 04:30 015 1 gusting 3 12.8
2018-May-25 04:25 001 0 gusting 3 12.8
2018-May-25 04:20 005 0 gusting 4 12.8
2018-May-25 04:10 334 0 gusting 4 12.8
2018-May-25 04:05 355 2 gusting 5 12.8
2018-May-25 03:55 281 3 gusting 8 12.8
2018-May-25 03:50 276 5 gusting 8 12.8
2018-May-25 03:45 326 3 gusting 8 12.8
2018-May-25 03:40 323 6 gusting 8 12.8
2018-May-25 03:30 305 1 gusting 4 13.3
2018-May-25 03:25 287 2 gusting 4 13.3
2018-May-25 03:20 253 13.3
2018-May-25 03:10 336 1 gusting 5 13.3
2018-May-25 03:05 296 3 gusting 5 13.3
2018-May-25 03:00 331 1 gusting 3 13.9
2018-May-25 02:55 341 1 gusting 2 13.9
2018-May-25 02:50 273 13.9
2018-May-25 02:40 281 1 gusting 2 13.9
2018-May-25 02:35 316 13.9
2018-May-25 02:25 197 4 gusting 12 13.9
2018-May-25 02:20 195 6 gusting 11 13.9
2018-May-25 02:10 086 1 gusting 1 13.9
2018-May-25 02:05 089 13.9
2018-May-25 01:55 119 13.9
2018-May-25 01:45 208 13.9
2018-May-25 01:40 256 13.9
2018-May-25 01:35 256 13.9
2018-May-25 01:30 256 13.9
2018-May-25 01:25 248 13.9
2018-May-25 01:20 248 13.9
2018-May-25 01:15 266 13.9
2018-May-25 01:10 281 13.9
2018-May-25 01:05 263 1 gusting 2 13.9
2018-May-25 01:00 266 0 gusting 1 13.9
2018-May-25 00:55 283 13.9
2018-May-25 00:50 283 13.9
2018-May-25 00:45 280 13.9
2018-May-25 00:40 253 13.9
2018-May-25 00:35 270 1 gusting 1 13.9
2018-May-25 00:30 283 13.9
2018-May-25 00:20 272 14.4
2018-May-25 00:15 253 0 gusting 1 14.4
2018-May-25 00:10 327 14.4
2018-May-25 00:05 297 0 gusting 6 14.4
2018-May-25 00:00 284 3 gusting 6 14.4
2018-May-24 23:55 287 3 gusting 5 14.4
2018-May-24 23:50 124 15.0
2018-May-24 23:45 120 1 gusting 5 15.0
2018-May-24 23:40 350 2 gusting 6 15.0
2018-May-24 23:35 081 5 gusting 6 15.0
2018-May-24 23:30 110 1 gusting 5 15.0
2018-May-24 23:25 280 3 gusting 8 15.0
2018-May-24 23:20 271 6 gusting 9 15.0
2018-May-24 23:15 284 3 gusting 6 15.0
2018-May-24 23:05 243 2 gusting 4 15.0
2018-May-24 23:00 266 3 gusting 4 15.0
2018-May-24 22:55 345 0 gusting 5 15.0
2018-May-24 22:50 285 3 gusting 5 15.0
2018-May-24 22:45 280 4 gusting 5 15.0
2018-May-24 22:40 264 2 gusting 4 15.0
2018-May-24 22:30 214 1 gusting 5 15.0
2018-May-24 22:25 291 3 gusting 5 15.6
2018-May-24 22:20 288 3 gusting 5 15.6
2018-May-24 22:15 280 3 gusting 5 15.6
2018-May-24 22:10 284 2 gusting 4 15.6
2018-May-24 22:05 294 2 gusting 4 15.6
2018-May-24 22:01 284 2 gusting 6 15.6
2018-May-24 21:55 294 4 gusting 9 15.6
2018-May-24 21:50 249 6 gusting 9 16.1
2018-May-24 21:40 251 5 gusting 8 17.2
2018-May-24 21:35 266 4 gusting 9 17.2
2018-May-24 21:30 287 6 gusting 9 17.2
2018-May-24 21:20 257 7 gusting 11 17.2
2018-May-24 21:15 266 7 gusting 11 17.2
2018-May-24 21:10 250 7 gusting 11 17.8
2018-May-24 21:05 266 7 gusting 13 17.8
2018-May-24 20:55 256 7 gusting 11 17.8
2018-May-24 20:50 264 7 gusting 11 17.8
2018-May-24 20:40 235 6 gusting 12 17.8
2018-May-24 20:30 262 7 gusting 12 17.8
2018-May-24 20:20 248 6 gusting 7 17.8
2018-May-24 20:15 259 6 gusting 7 17.8
2018-May-24 20:05 226 5 gusting 9 17.8
2018-May-24 20:00 251 6 gusting 9 17.8
2018-May-24 19:55 258 5 gusting 10 18.3
2018-May-24 19:50 256 7 gusting 13 18.3
2018-May-24 19:40 253 10 gusting 14 18.3
2018-May-24 19:35 256 10 gusting 15 18.9
2018-May-24 19:30 298 11 gusting 17 18.9
2018-May-24 19:25 259 10 gusting 18 18.9
2018-May-24 19:20 267 13 gusting 18 19.4
2018-May-24 19:10 296 11 gusting 17 20.0
2018-May-24 19:00 270 11 gusting 19 20.0
2018-May-24 18:56 260 11 gusting 19 20.6
2018-May-24 18:50 263 14 gusting 19 20.6
2018-May-24 18:45 258 14 gusting 19 21.1
2018-May-24 18:40 255 15 gusting 19 21.7
2018-May-24 18:35 257 13 gusting 18 21.7
2018-May-24 18:30 264 13 gusting 19 21.7
2018-May-24 18:20 255 11 gusting 19 22.2
2018-May-24 18:10 263 13 gusting 19 22.8
2018-May-24 18:05 285 13 gusting 19 23.3
2018-May-24 17:55 256 13 gusting 18 26.7
2018-May-24 17:50 152 5 gusting 12 26.7
2018-May-24 17:45 160 7 gusting 13 26.7
2018-May-24 17:40 186 6 gusting 13 27.2
2018-May-24 17:35 214 4 gusting 13 27.2
2018-May-24 17:30 186 5 gusting 13 27.2
2018-May-24 17:25 203 6 gusting 14 27.2
2018-May-24 17:20 187 6 gusting 14 27.2
2018-May-24 17:10 203 4 gusting 11 27.2
2018-May-24 17:05 236 5 gusting 11 27.2
2018-May-24 16:55 232 3 gusting 10 27.2
2018-May-24 16:50 217 7 gusting 10 27.2
2018-May-24 16:45 221 6 gusting 10 27.2
2018-May-24 16:40 233 6 gusting 10 27.2
2018-May-24 16:30 115 8 gusting 13 27.2
2018-May-24 16:25 218 5 gusting 12 27.2
2018-May-24 16:20 204 7 gusting 16 27.2
2018-May-24 16:15 195 8 gusting 16 27.2
2018-May-24 16:10 124 6 gusting 14 27.2
2018-May-24 16:05 229 6 gusting 17 27.2
2018-May-24 16:00 239 6 gusting 17 27.2
2018-May-24 15:55 163 6 gusting 12 27.2
2018-May-24 15:50 186 6 gusting 15 27.2
2018-May-24 15:45 172 8 gusting 15 27.2
2018-May-24 15:40 158 6 gusting 19 27.2
2018-May-24 15:35 162 8 gusting 19 27.2
2018-May-24 15:30 151 10 gusting 19 27.8
2018-May-24 15:25 200 9 gusting 19 27.8
2018-May-24 15:20 243 7 gusting 13 27.8
2018-May-24 15:10 156 10 gusting 18 27.2
2018-May-24 15:05 256 10 gusting 19 27.8
2018-May-24 15:00 208 6 gusting 20 27.8
2018-May-24 14:55 226 9 gusting 20 27.8
2018-May-24 14:50 224 10 gusting 19 28.3
2018-May-24 14:45 142 11 gusting 22 28.3
2018-May-24 14:40 121 9 gusting 22 28.3
2018-May-24 14:35 158 11 gusting 17 28.3
2018-May-24 14:25 142 10 gusting 18 28.3
2018-May-24 14:20 200 9 gusting 18 28.3
2018-May-24 14:15 264 7 gusting 14 28.3
2018-May-24 14:05 139 8 gusting 18 28.3
2018-May-24 14:00 158 11 gusting 18 28.3
2018-May-24 13:55 130 7 gusting 13 28.3
2018-May-24 13:50 088 6 gusting 13 28.3
2018-May-24 13:46 099 8 gusting 13 28.3
2018-May-24 13:40 156 5 gusting 13 28.9
2018-May-24 13:35 142 11 gusting 13 28.9
2018-May-24 13:30 141 6 gusting 11 28.3
2018-May-24 13:25 071 2 gusting 5 27.8
2018-May-24 13:20 148 1 gusting 6 27.2
2018-May-24 13:15 067 4 gusting 13 27.2
2018-May-24 13:10 054 10 gusting 13 27.2
2018-May-24 13:05 046 10 gusting 18 27.2
2018-May-24 13:00 067 9 gusting 18 26.7
2018-May-24 12:55 050 9 gusting 14 26.7
2018-May-24 12:50 339 6 gusting 14 26.1
2018-May-24 12:40 048 12 gusting 16 25.6
2018-May-24 12:35 075 9 gusting 16 25.0
2018-May-24 12:30 085 12 gusting 16 25.6
2018-May-24 12:20 054 11 gusting 15 25.6
2018-May-24 12:15 060 12 gusting 16 25.0
2018-May-24 12:10 075 11 gusting 16 25.0
2018-May-24 12:05 080 11 gusting 18 25.0
2018-May-24 12:00 087 14 gusting 18 25.0
2018-May-24 11:55 304 9 gusting 17 25.0
2018-May-24 11:50 049 11 gusting 14 25.0
2018-May-24 11:40 075 9 gusting 14 25.0
2018-May-24 11:35 061 9 gusting 13 24.4
2018-May-24 11:30 058 10 gusting 16 23.9
2018-May-24 11:25 068 13 gusting 16 23.3
2018-May-24 11:20 058 11 gusting 14 23.3
2018-May-24 11:10 082 10 gusting 15 22.8
2018-May-24 11:05 050 9 gusting 15 22.8
2018-May-24 11:00 034 11 gusting 14 22.8
2018-May-24 10:55 083 10 gusting 13 22.8
2018-May-24 10:50 053 8 gusting 13 22.2
2018-May-24 10:40 064 9 gusting 15 21.7
2018-May-24 10:30 056 8 gusting 12 21.7
2018-May-24 10:25 072 8 gusting 13 21.1
2018-May-24 10:20 081 11 gusting 13 21.1
2018-May-24 10:15 064 11 gusting 13 20.6
2018-May-24 10:05 075 9 gusting 11 20.6
2018-May-24 09:55 060 6 gusting 11 19.4
2018-May-24 09:50 071 8 gusting 11 19.4
2018-May-24 09:45 061 7 gusting 11 18.9
2018-May-24 09:40 058 9 gusting 11 18.9
2018-May-24 09:35 037 7 gusting 11 18.3
2018-May-24 09:25 056 9 gusting 12 18.3
2018-May-24 09:20 068 7 gusting 10 18.3
2018-May-24 09:10 011 5 gusting 8 17.8
2018-May-24 09:05 323 5 gusting 8 17.2
2018-May-24 09:00 021 5 gusting 8 17.2